Voltar ao catálogo

ATLAS 5 CENTAUR DEB

LostHEO
NORAD 49355·DEBRIS·🇺🇸 United States

Lançado Oct 17, 2018 de Cape Canaveral Space Force Station

Loading…

Próximas Passagens (próximas 24 horas)

TLE

ObsoletoSource: Space-Track

Época: Jan 8, 2023, 20:49 UTC

1 49355U 18079FG  23008.86756955 -.00000040  00000-0  00000+0 0  9999
2 49355  10.3189 174.5999 4544966  53.7253 340.2425  1.72554161  8580

Acompanhe ATLAS 5 CENTAUR DEB em tempo real com AllMySat

Download on the App Store